, CA

(GMT )
Point Mugu

Weather History for KNTD - September, 2012

Change the Weather History Date:

Tuesday, September 4, 2012

  Actual Average Record
Temperature  
Mean Temperature 65 °F -  
Max Temperature 77 °F 72 °F 80 °F (1997)
Min Temperature 55 °F 57 °F 51 °F (2011)
Growing Degree Days 15 (Base 50)    
Moisture  
Dew Point 59 °F    
Average Humidity 74    
Maximum Humidity 86    
Minimum Humidity 61    
Precipitation  
Precipitation 0.00 in - - ()
Sea Level Pressure  
Sea Level Pressure 29.97 in    
Wind  
Wind Speed 3 mph (WNW)    
Max Wind Speed 12 mph    
Max Gust Speed -    
Visibility 8 miles    
Events      
Averages and records for this station are not official NWS values.
T = Trace of Precipitation, MM = Missing Value Source: NWS Daily Summary

Daily Weather History Graph

Daily Weather History Graph

Search for Another Location

Airport or City:

Trip Planner

Search our weather history database for the weather conditions in past years. The results will help you decide how hot, cold, wet, or windy it might be!

Date:

Astronomy

Sep. 04, 2012 Rise Set
Actual Time 6:32 AM PDT 7:17 PM PDT
Civil Twilight 6:07 AM PDT 7:42 PM PDT
Nautical Twilight 5:37 AM PDT 8:12 PM PDT
Astronomical Twilight 5:06 AM PDT 8:43 PM PDT
Moon 9:28 PM PDT (9/4) 10:29 AM PDT (9/4)
Length of Visible Light 13h 35m
Length of Day
12h 45m
Waning Gibbous, 83% of the Moon is Illuminated
Sep 4
Waning Gibbous
Sep 8
Last Quarter
Sep 15
New
Sep 22
First Quarter
Sep 29
Full

Hourly Weather History & Observations

Time (PDT) Temp. Dew Point Humidity Pressure Visibility Wind Dir Wind Speed Gust Speed Precip Events Conditions
12:54 AM 57.9 °F - N/A% 29.98 in 10.0 mi Calm Calm - N/A   Clear
1:54 AM 57.9 °F - N/A% 29.98 in 10.0 mi Calm Calm - N/A   Clear
2:54 AM 57.9 °F - N/A% 29.97 in 10.0 mi Calm Calm - N/A   Clear
3:54 AM 55.9 °F - N/A% 29.97 in 10.0 mi Calm Calm - N/A   Clear
4:54 AM 55.0 °F - N/A% 29.96 in 10.0 mi Calm Calm - N/A   Clear
5:54 AM 57.0 °F - N/A% 29.97 in 7.0 mi NNW 3.5 mph - N/A   Partly Cloudy
6:54 AM 55.9 °F - N/A% 29.99 in 10.0 mi ENE 3.5 mph - N/A   Clear
6:58 AM 57.2 °F - N/A% 29.98 in 7.0 mi NE 4.6 mph - N/A   Scattered Clouds
7:54 AM 61.0 °F 56.7 °F 86% 29.99 in 7.0 mi Calm Calm - N/A   Partly Cloudy
8:54 AM 64.9 °F 59.7 °F 83% 30.00 in 7.0 mi Calm Calm - N/A   Partly Cloudy
9:54 AM 70.0 °F 61.0 °F 73% 30.01 in 7.0 mi West 5.8 mph - N/A   Partly Cloudy
10:54 AM 70.0 °F - N/A% 30.01 in 10.0 mi West 8.1 mph - N/A   Clear
11:54 AM 70.0 °F 60.4 °F 72% 30.00 in 7.0 mi WSW 6.9 mph - N/A   Scattered Clouds
12:54 PM 72.0 °F 60.4 °F 67% 30.00 in 7.0 mi WSW 9.2 mph - N/A   Scattered Clouds
1:54 PM 72.0 °F 60.3 °F 67% 29.99 in 7.0 mi West 10.4 mph - N/A   Scattered Clouds
2:54 PM 72.0 °F 60.8 °F 68% 29.96 in 7.0 mi West 9.2 mph - N/A   Scattered Clouds
3:54 PM 75.0 °F 60.8 °F 61% 29.93 in 7.0 mi West 9.2 mph - N/A   Scattered Clouds
4:54 PM 71.1 °F 61.3 °F 71% 29.93 in 7.0 mi West 11.5 mph - N/A   Scattered Clouds
5:54 PM 69.1 °F 60.8 °F 75% 29.93 in 7.0 mi West 9.2 mph - N/A   Scattered Clouds
6:54 PM 64.9 °F 57.2 °F 76% 29.93 in 7.0 mi West 6.9 mph - N/A   Partly Cloudy
7:54 PM 64.0 °F 57.2 °F 78% 29.94 in 7.0 mi Calm Calm - N/A   Partly Cloudy
8:54 PM 64.9 °F 57.2 °F 76% 29.95 in 7.0 mi NNW 4.6 mph - N/A   Partly Cloudy
9:54 PM 63.0 °F 57.2 °F 81% 29.95 in 7.0 mi NW 6.9 mph - N/A   Partly Cloudy
10:54 PM 63.0 °F 57.2 °F 81% 29.96 in 7.0 mi WNW 5.8 mph - N/A   Partly Cloudy
11:54 PM 63.0 °F - N/A% 29.96 in 10.0 mi Calm Calm - N/A   Clear